FW1422 Weather Reports


time (UTC)temp
F
wind
direction
speed
knots
gust
knots
rain 1hr
in
rain 24hr
in
rain mn
in
humidity
%
barometer
mb
20260505164516 54 164 2.6 11.3 0.01 0.32 0.32 91 1008.7
20260505163016 54 163 3.5 10.4 0.02 0.32 0.32 91 1008.5
20260505161514 52 162 3.5 10.4 0.04 0.32 0.32 93 1008.2
20260505153030 51 163 3.5 13.9 0.19 0.30 0.30 94 1008.3
20260505151509 51 164 12.2 15.6 0.17 0.28 0.28 92 1008.7
20260505124547 0 0.0 0.0 0.00 0.11 0.11 1007.8
20260505123051 0 0.0 0.0 0.00 0.11 0.11 1007.9
20260505121537 0 0.0 0.0 0.00 0.11 0.11 1007.7
20260505120046 0 0.0 0.0 0.00 0.11 0.11 1007.1
20260505114531 0 0.0 0.0 0.00 0.11 0.11 1006.9
20260505113025 0 0.0 0.0 0.00 0.11 0.11 1006.7
20260505111530 0 0.0 0.0 0.00 0.11 0.11 1006.4
20260505101502 0 0.0 0.0 0.00 0.11 0.11 1005.4
20260505100059 0 0.0 0.0 0.01 0.11 0.11 1006.3
20260505094555 0 0.0 0.0 0.03 0.16 0.11 1006.6
20260505093051 0 0.0 0.0 0.04 0.16 0.11 1006.4
20260505091554 57 224 4.3 7.8 0.11 0.16 0.11 92 1006.6
20260505090045 57 160 2.6 4.3 0.10 0.15 0.10 92 1006.8
20260505084553 58 162 0.0 0.0 0.08 0.21 0.08 90 1007.1
20260505083054 59 158 1.7 12.2 0.07 0.20 0.07 85 1007.6
20260505081536 62 159 9.6 13.9 0.00 0.13 0.00 74 1007.7
20260505080031 64 160 4.3 8.7 0.00 0.13 0.00 68 1006.7
20260505074533 65 160 1.7 9.6 0.00 0.20 0.00 66 1006.7
20260505073026 66 161 3.5 11.3 0.00 0.20 0.00 68 1007.1
20260505071524 67 153 5.2 11.3 0.00 0.20 0.00 64 1006.0
20260505070021 68 150 7.0 10.4 0.00 0.20 0.00 63 1005.7
20260505064522 68 149 9.6 13.9 0.00 0.20 0.00 63 1005.6
20260505063015 68 154 9.6 15.6 0.00 0.20 0.00 62 1004.9
20260505061513 68 155 8.7 19.1 0.00 0.20 0.00 62 1004.8
20260505060011 68 150 12.2 20.0 0.00 0.20 0.00 61 1004.6
20260505054517 69 148 12.2 19.1 0.00 0.20 0.00 60 1004.4
20260505053006 69 154 10.4 20.0 0.00 0.20 0.00 60 1004.5
20260505051502 69 153 11.3 18.2 0.00 0.20 0.00 59 1004.4
20260505050109 69 151 13.0 18.2 0.00 0.20 0.00 59 1004.0
20260505041607 69 150 15.6 21.7 0.00 0.20 0.20 56 1004.1
20260505040105 70 155 11.3 21.7 0.00 0.20 0.20 56 1004.3
20260505034611 70 154 11.3 17.4 0.00 0.20 0.20 55 1004.5
20260505033057 70 158 10.4 17.4 0.00 0.20 0.20 54 1004.6
20260505031558 71 154 11.3 19.1 0.00 0.20 0.20 53 1004.6
20260505030104 71 155 13.0 23.5 0.00 0.20 0.20 53 1004.6
20260505024609 70 155 13.0 18.2 0.00 0.20 0.20 54 1004.5
20260505023054 70 156 11.3 18.2 0.00 0.20 0.20 56 1004.5
20260505021553 71 155 13.0 20.9 0.00 0.20 0.20 53 1004.4
20260505020105 71 159 13.0 20.9 0.00 0.20 0.20 54 1004.1
20260505014552 72 150 12.2 20.0 0.00 0.20 0.20 51 1004.7
20260505013051 72 150 15.6 21.7 0.00 0.20 0.20 51 1004.1
20260505011555 72 153 9.6 18.2 0.00 0.20 0.20 53 1004.0
20260505010107 72 150 6.1 12.2 0.00 0.20 0.20 51 1004.0
20260505004602 72 153 9.6 13.9 0.00 0.20 0.20 50 1003.6
20260505003052 73 154 10.4 17.4 0.00 0.20 0.20 49 1003.5
20260505001550 73 155 7.0 15.6 0.00 0.20 0.20 49 1003.2
20260505000047 74 155 9.6 14.8 0.00 0.20 0.20 47 1003.1
20260504234545 75 156 12.2 19.1 0.00 0.20 0.20 45 1003.2
20260504233047 75 153 8.7 18.2 0.00 0.20 0.20 45 1003.2
20260504231613 74 155 7.8 14.8 0.00 0.20 0.20 46 1003.3
20260504230043 75 153 10.4 20.0 0.00 0.20 0.20 44 1003.2
20260504224543 75 155 11.3 22.6 0.00 0.20 0.20 44 1002.9
20260504223040 75 155 13.9 20.9 0.00 0.20 0.20 47 1003.0
20260504221552 74 153 13.9 19.1 0.00 0.20 0.20 48 1003.8
20260504220036 74 155 13.0 24.3 0.00 0.20 0.20 48 1003.9
20260504214536 74 154 14.8 28.7 0.00 0.20 0.20 48 1003.9
20260504213040 73 153 15.6 26.9 0.00 0.20 0.20 47 1003.9
20260504211534 72 153 12.2 18.2 0.00 0.20 0.20 53 1004.1
20260504210028 72 154 11.3 16.5 0.00 0.20 0.20 55 1005.1
20260504204528 71 155 9.6 12.2 0.00 0.20 0.20 58 1005.7
20260504203025 71 150 7.8 12.2 0.00 0.20 0.20 62 1005.7
20260504201527 71 155 6.1 8.7 0.00 0.20 0.20 61 1005.8
20260504200026 71 148 0.0 0.0 0.00 0.20 0.20 63 1007.3
20260504194524 71 149 0.0 0.0 0.00 0.20 0.20 63 1007.6
20260504193022 72 148 0.0 9.6 0.00 0.20 0.20 59 1007.8
20260504191525 72 150 7.0 10.4 0.00 0.20 0.20 58 1007.3
20260504190021 73 155 7.0 13.9 0.00 0.20 0.20 57 1006.1
20260504184537 73 155 12.2 20.0 0.00 0.20 0.20 57 1005.8
20260504183018 74 156 12.2 22.6 0.00 0.20 0.20 57 1006.0
20260504181518 75 154 17.4 25.2 0.00 0.20 0.20 55 1006.2
20260504180014 75 157 13.9 21.7 0.00 0.20 0.20 56 1006.4
20260504174510 74 153 14.8 26.1 0.00 0.20 0.20 56 1006.6
20260504173014 74 156 16.5 22.6 0.00 0.20 0.20 55 1006.9
20260504171503 73 155 12.2 19.1 0.00 0.20 0.20 57 1007.1